Location: Wald
(31.7579°N, 86.6655°W)
Time: 10:58:10
(UTC+00:00)

Aureole 1 Rocket - Pass Details

Date: 14 July 2020
Orbit: 377 x 1380 km, 73.9° (Epoch: 08 August)

Event Time Altitude Azimuth Distance (km) Brightness Sun altitude
Exits shadow 07:33:45 40° 14° (NNE) 1,012 4.5 -31.4°
Drops below altitude 10° 07:37:17 10° 16° (NNE) 2,361 6.9 -31.1°
Sets 07:40:04 0° 17° (NNE) 3,477 8.0 -30.8°
